| time (UTC) | temp F | wind direction | speed knots | gust knots | rain 1hr in | rain 24hr in | rain mn in | humidity % | barometer mb |
| 20260510033612 | 74 | 146 | 0.9 | 1.7 | 0.00 | 0.01 | 0.01 | 84 | 1012.0 |
| 20260510033110 | 74 | 89 | 0.9 | 0.9 | 0.00 | 0.01 | 0.01 | 83 | 1012.0 |
| 20260510032605 | 74 | 147 | 1.7 | 4.3 | 0.00 | 0.01 | 0.01 | 81 | 1012.0 |
| 20260510032100 | 74 | 149 | 0.9 | 1.7 | 0.00 | 0.01 | 0.01 | 80 | 1011.7 |
| 20260510031555 | 73 | 67 | 0.9 | 0.9 | 0.00 | 0.01 | 0.01 | 79 | 1012.0 |
| 20260510031052 | 74 | 24 | 0.0 | 0.0 | 0.00 | 0.01 | 0.01 | 79 | 1012.0 |
| 20260510030542 | 74 | 93 | 0.0 | 0.9 | 0.00 | 0.01 | 0.01 | 78 | 1011.7 |
| 20260510030040 | 74 | 176 | 0.9 | 0.9 | 0.00 | 0.01 | 0.01 | 77 | 1011.7 |
| 20260510025536 | 74 | 28 | 0.0 | 0.0 | 0.00 | 0.01 | 0.01 | 76 | 1011.7 |
| 20260510025034 | 75 | 165 | 0.9 | 1.7 | 0.00 | 0.01 | 0.01 | 75 | 1011.7 |
| 20260510024530 | 75 | 141 | 4.3 | 6.1 | 0.00 | 0.01 | 0.01 | 74 | 1011.7 |
| 20260510024027 | 75 | 106 | 3.5 | 5.2 | 0.00 | 0.01 | 0.01 | 73 | 1011.3 |
| 20260510023522 | 76 | 176 | 0.9 | 2.6 | 0.00 | 0.01 | 0.01 | 72 | 1011.3 |
| 20260510023020 | 76 | 89 | 1.7 | 1.7 | 0.00 | 0.01 | 0.01 | 72 | 1011.3 |
| 20260510022520 | 75 | 88 | 1.7 | 1.7 | 0.00 | 0.01 | 0.01 | 73 | 1011.3 |
| 20260510022014 | 75 | 86 | 2.6 | 4.3 | 0.00 | 0.01 | 0.01 | 72 | 1011.3 |
| 20260510021511 | 75 | 93 | 0.9 | 0.9 | 0.00 | 0.01 | 0.01 | 73 | 1011.0 |
| 20260510021008 | 75 | 184 | 4.3 | 7.0 | 0.00 | 0.01 | 0.01 | 74 | 1011.0 |
| 20260510020502 | 75 | 97 | 1.7 | 1.7 | 0.00 | 0.01 | 0.01 | 75 | 1011.3 |
| 20260510015958 | 75 | 47 | 2.6 | 5.2 | 0.00 | 0.01 | 0.01 | 75 | 1011.3 |
| 20260510015454 | 77 | 88 | 4.3 | 6.1 | 0.00 | 0.01 | 0.01 | 76 | 1011.0 |
| 20260510014950 | 77 | 97 | 0.9 | 1.7 | 0.00 | 0.01 | 0.01 | 78 | 1010.7 |
| 20260510014448 | 79 | 53 | 7.0 | 7.8 | 0.00 | 0.01 | 0.01 | 75 | 1010.3 |
| 20260510013944 | 81 | 114 | 1.7 | 4.3 | 0.00 | 0.01 | 0.01 | 81 | 1010.3 |
| 20260510013438 | 83 | 142 | 0.9 | 0.9 | 0.00 | 0.01 | 0.01 | 77 | 1010.0 |
| 20260510012935 | 84 | 140 | 0.9 | 0.9 | 0.00 | 0.01 | 0.01 | 66 | 1009.7 |
| 20260510012429 | 84 | 154 | 1.7 | 1.7 | 0.00 | 0.01 | 0.01 | 65 | 1009.3 |
| 20260510011925 | 84 | 156 | 2.6 | 4.3 | 0.00 | 0.01 | 0.01 | 67 | 1008.6 |
| 20260510011420 | 84 | 245 | 0.9 | 0.9 | 0.00 | 0.01 | 0.01 | 68 | 1008.6 |
| 20260510010916 | 84 | 183 | 3.5 | 5.2 | 0.00 | 0.01 | 0.01 | 67 | 1008.6 |
| 20260510010414 | 84 | 213 | 1.7 | 1.7 | 0.00 | 0.01 | 0.01 | 67 | 1008.6 |
| 20260510005910 | 85 | 94 | 3.5 | 5.2 | 0.00 | 0.01 | 0.01 | 67 | 1008.6 |
| 20260510005406 | 85 | 277 | 1.7 | 2.6 | 0.00 | 0.01 | 0.01 | 68 | 1008.6 |
| 20260510004904 | 85 | 130 | 1.7 | 2.6 | 0.00 | 0.01 | 0.01 | 67 | 1008.6 |
| 20260510004401 | 85 | 194 | 0.9 | 0.9 | 0.00 | 0.01 | 0.01 | 67 | 1008.3 |
| 20260510003859 | 86 | 147 | 1.7 | 2.6 | 0.00 | 0.01 | 0.01 | 67 | 1008.3 |
| 20260510003355 | 86 | 118 | 0.9 | 1.7 | 0.00 | 0.01 | 0.01 | 68 | 1008.0 |
| 20260510002854 | 86 | 130 | 2.6 | 2.6 | 0.00 | 0.01 | 0.01 | 68 | 1008.3 |
| 20260510002352 | 86 | 149 | 2.6 | 2.6 | 0.00 | 0.01 | 0.01 | 67 | 1008.0 |
| 20260510001848 | 86 | 342 | 0.9 | 1.7 | 0.00 | 0.01 | 0.01 | 65 | 1008.0 |
| 20260510001346 | 87 | 150 | 0.9 | 0.9 | 0.00 | 0.01 | 0.01 | 63 | 1008.0 |
| 20260510000842 | 87 | 198 | 0.0 | 0.9 | 0.00 | 0.01 | 0.01 | 62 | 1008.0 |
| 20260510000341 | 87 | 164 | 0.9 | 0.9 | 0.00 | 0.01 | 0.01 | 61 | 1008.0 |
| 20260509235836 | 88 | 343 | 0.0 | 0.0 | 0.00 | 0.01 | 0.01 | 59 | 1008.0 |
| 20260509235333 | 88 | 98 | 0.9 | 1.7 | 0.00 | 0.01 | 0.01 | 58 | 1008.0 |
| 20260509234829 | 89 | 310 | 0.9 | 1.7 | 0.00 | 0.01 | 0.01 | 58 | 1008.0 |
| 20260509234326 | 89 | 225 | 0.0 | 0.9 | 0.00 | 0.01 | 0.01 | 56 | 1007.6 |
| 20260509233824 | 89 | 208 | 0.9 | 1.7 | 0.00 | 0.01 | 0.01 | 57 | 1008.0 |
| 20260509233321 | 89 | 83 | 0.9 | 0.9 | 0.00 | 0.01 | 0.01 | 57 | 1008.0 |
| 20260509232817 | 89 | 161 | 1.7 | 1.7 | 0.00 | 0.01 | 0.01 | 56 | 1008.0 |
| 20260509232315 | 90 | 233 | 0.9 | 1.7 | 0.00 | 0.01 | 0.01 | 55 | 1008.0 |
| 20260509231811 | 91 | 73 | 0.9 | 0.9 | 0.00 | 0.01 | 0.01 | 56 | 1007.6 |
| 20260509231308 | 91 | 172 | 0.9 | 1.7 | 0.00 | 0.01 | 0.01 | 54 | 1008.0 |
| 20260509230806 | 91 | 233 | 1.7 | 1.7 | 0.00 | 0.01 | 0.01 | 54 | 1008.0 |
| 20260509230302 | 91 | 233 | 0.9 | 0.9 | 0.00 | 0.01 | 0.01 | 53 | 1008.0 |
| 20260509225757 | 91 | 30 | 0.9 | 0.9 | 0.00 | 0.01 | 0.01 | 55 | 1008.0 |
| 20260509225254 | 91 | 355 | 0.9 | 0.9 | 0.00 | 0.01 | 0.01 | 54 | 1007.6 |
| 20260509224750 | 91 | 302 | 0.9 | 0.9 | 0.00 | 0.01 | 0.01 | 54 | 1008.0 |
| 20260509224247 | 90 | 161 | 2.6 | 4.3 | 0.00 | 0.01 | 0.01 | 54 | 1008.0 |
| 20260509223744 | 89 | 34 | 0.9 | 0.9 | 0.00 | 0.01 | 0.01 | 60 | 1008.0 |
| 20260509223241 | 90 | 57 | 1.7 | 1.7 | 0.00 | 0.01 | 0.01 | 58 | 1007.6 |
| 20260509222737 | 90 | 196 | 1.7 | 2.6 | 0.00 | 0.01 | 0.01 | 58 | 1007.6 |
| 20260509222233 | 90 | 19 | 0.9 | 0.9 | 0.00 | 0.01 | 0.01 | 59 | 1008.0 |
| 20260509221728 | 90 | 89 | 1.7 | 1.7 | 0.00 | 0.01 | 0.01 | 59 | 1007.3 |
| 20260509221225 | 89 | 46 | 2.6 | 2.6 | 0.00 | 0.01 | 0.01 | 60 | 1007.6 |
| 20260509220721 | 89 | 11 | 0.9 | 0.9 | 0.00 | 0.01 | 0.01 | 61 | 1007.6 |
| 20260509220218 | 89 | 77 | 2.6 | 4.3 | 0.00 | 0.01 | 0.01 | 61 | 1007.6 |
| 20260509215713 | 89 | 1 | 0.9 | 1.7 | 0.00 | 0.01 | 0.01 | 59 | 1007.3 |
| 20260509215210 | 89 | 11 | 0.9 | 0.9 | 0.00 | 0.01 | 0.01 | 58 | 1007.3 |
| 20260509214707 | 89 | 359 | 2.6 | 2.6 | 0.00 | 0.01 | 0.01 | 58 | 1007.3 |
| 20260509214204 | 89 | 279 | 0.9 | 0.9 | 0.00 | 0.01 | 0.01 | 58 | 1007.6 |
| 20260509213701 | 89 | 288 | 2.6 | 2.6 | 0.00 | 0.01 | 0.01 | 58 | 1007.6 |
| 20260509213156 | 89 | 324 | 2.6 | 2.6 | 0.00 | 0.01 | 0.01 | 60 | 1007.6 |
| 20260509212654 | 89 | 335 | 4.3 | 5.2 | 0.00 | 0.01 | 0.01 | 60 | 1007.3 |
| 20260509212151 | 89 | 46 | 1.7 | 1.7 | 0.00 | 0.01 | 0.01 | 60 | 1007.6 |
| 20260509211647 | 89 | 311 | 2.6 | 2.6 | 0.00 | 0.01 | 0.01 | 59 | 1007.3 |
| 20260509211143 | 89 | 342 | 2.6 | 2.6 | 0.00 | 0.01 | 0.01 | 59 | 1008.0 |
| 20260509210640 | 89 | 340 | 2.6 | 2.6 | 0.00 | 0.01 | 0.01 | 59 | 1007.6 |
| 20260509210137 | 88 | 291 | 1.7 | 1.7 | 0.00 | 0.01 | 0.01 | 63 | 1007.6 |
| 20260509205632 | 88 | 324 | 1.7 | 2.6 | 0.00 | 0.01 | 0.01 | 63 | 1007.6 |
| 20260509205127 | 88 | 300 | 2.6 | 2.6 | 0.00 | 0.01 | 0.01 | 61 | 1008.0 |
| 20260509204623 | 88 | 358 | 3.5 | 5.2 | 0.00 | 0.01 | 0.01 | 61 | 1008.0 |
| 20260509204120 | 88 | 324 | 3.5 | 4.3 | 0.00 | 0.01 | 0.01 | 61 | 1007.6 |
| 20260509203616 | 88 | 341 | 2.6 | 2.6 | 0.00 | 0.01 | 0.01 | 61 | 1008.0 |
| 20260509203114 | 89 | 19 | 2.6 | 4.3 | 0.00 | 0.01 | 0.01 | 60 | 1008.0 |
| 20260509202608 | 88 | 307 | 4.3 | 5.2 | 0.00 | 0.01 | 0.01 | 62 | 1008.0 |
| 20260509202104 | 88 | 308 | 0.9 | 0.9 | 0.00 | 0.01 | 0.01 | 61 | 1008.3 |
| 20260509201604 | 87 | 344 | 0.0 | 0.9 | 0.00 | 0.01 | 0.01 | 62 | 1008.3 |
| 20260509201103 | 88 | 297 | 2.6 | 4.3 | 0.00 | 0.01 | 0.01 | 61 | 1008.0 |
| 20260509200602 | 87 | 302 | 1.7 | 2.6 | 0.00 | 0.01 | 0.01 | 63 | 1008.3 |
| 20260509200053 | 87 | 282 | 0.9 | 0.9 | 0.00 | 0.01 | 0.01 | 63 | 1008.3 |
| 20260509195549 | 87 | 4 | 0.9 | 1.7 | 0.00 | 0.01 | 0.01 | 64 | 1008.3 |
| 20260509195044 | 87 | 341 | 2.6 | 2.6 | 0.00 | 0.01 | 0.01 | 63 | 1008.6 |
| 20260509194544 | 87 | 320 | 1.7 | 1.7 | 0.00 | 0.01 | 0.01 | 63 | 1009.0 |
| 20260509194042 | 87 | 286 | 2.6 | 2.6 | 0.00 | 0.01 | 0.01 | 62 | 1008.6 |
| 20260509193537 | 87 | 309 | 4.3 | 5.2 | 0.00 | 0.01 | 0.01 | 63 | 1009.0 |
| 20260509193033 | 87 | 305 | 2.6 | 4.3 | 0.00 | 0.01 | 0.01 | 62 | 1008.6 |
| 20260509192530 | 86 | 345 | 0.9 | 0.9 | 0.00 | 0.01 | 0.01 | 63 | 1009.0 |
| 20260509192025 | 86 | 312 | 3.5 | 4.3 | 0.00 | 0.01 | 0.01 | 64 | 1009.0 |
| 20260509191520 | 86 | 319 | 5.2 | 6.1 | 0.00 | 0.01 | 0.01 | 63 | 1009.0 |
| 20260509191016 | 87 | 296 | 3.5 | 4.3 | 0.00 | 0.01 | 0.01 | 61 | 1009.0 |
| 20260509190513 | 86 | 315 | 0.9 | 0.9 | 0.00 | 0.01 | 0.01 | 62 | 1009.0 |
| 20260509190011 | 88 | 306 | 4.3 | 5.2 | 0.00 | 0.01 | 0.01 | 60 | 1009.0 |
| 20260509185508 | 87 | 254 | 3.5 | 4.3 | 0.00 | 0.01 | 0.01 | 62 | 1009.0 |
| 20260509185004 | 87 | 267 | 2.6 | 2.6 | 0.00 | 0.01 | 0.01 | 63 | 1009.0 |
| 20260509184503 | 87 | 324 | 2.6 | 4.3 | 0.00 | 0.01 | 0.01 | 63 | 1009.3 |
| 20260509183958 | 86 | 271 | 0.9 | 0.9 | 0.00 | 0.01 | 0.01 | 66 | 1009.3 |
| 20260509183453 | 87 | 300 | 5.2 | 6.1 | 0.00 | 0.01 | 0.01 | 65 | 1009.3 |
| 20260509182950 | 87 | 300 | 0.0 | 0.0 | 0.00 | 0.01 | 0.01 | 65 | 1009.3 |
| 20260509182445 | 87 | 277 | 0.0 | 0.9 | 0.00 | 0.01 | 0.01 | 66 | 1009.7 |
| 20260509181943 | 87 | 11 | 0.9 | 1.7 | 0.00 | 0.01 | 0.01 | 65 | 1009.7 |
| 20260509181435 | 88 | 161 | 1.7 | 2.6 | 0.00 | 0.01 | 0.01 | 63 | 1009.7 |
| 20260509180933 | 87 | 243 | 0.9 | 0.9 | 0.00 | 0.01 | 0.01 | 64 | 1009.7 |
| 20260509180427 | 87 | 176 | 1.7 | 1.7 | 0.00 | 0.01 | 0.01 | 63 | 1010.0 |
| 20260509175925 | 87 | 282 | 0.9 | 0.9 | 0.00 | 0.01 | 0.01 | 65 | 1009.7 |
| 20260509175421 | 87 | 321 | 1.7 | 2.6 | 0.00 | 0.01 | 0.01 | 68 | 1009.7 |
| 20260509174912 | 87 | 302 | 2.6 | 2.6 | 0.00 | 0.01 | 0.01 | 67 | 1010.0 |
| 20260509174408 | 87 | 258 | 4.3 | 5.2 | 0.00 | 0.01 | 0.01 | 66 | 1010.0 |
| 20260509173904 | 86 | 309 | 0.0 | 0.0 | 0.00 | 0.01 | 0.01 | 71 | 1010.0 |
| 20260509173403 | 84 | 266 | 0.0 | 0.0 | 0.00 | 0.01 | 0.01 | 74 | 1010.0 |
| 20260509172901 | 84 | 262 | 2.6 | 4.3 | 0.00 | 0.01 | 0.01 | 72 | 1010.0 |
| 20260509172357 | 85 | 128 | 0.0 | 0.9 | 0.00 | 0.01 | 0.01 | 73 | 1010.3 |
| 20260509171853 | 84 | 290 | 1.7 | 2.6 | 0.00 | 0.01 | 0.01 | 73 | 1010.3 |
| 20260509171349 | 83 | 210 | 0.0 | 0.9 | 0.00 | 0.01 | 0.01 | 76 | 1010.3 |
| 20260509170846 | 83 | 209 | 1.7 | 1.7 | 0.00 | 0.01 | 0.01 | 74 | 1010.3 |
| 20260509170341 | 83 | 273 | 0.0 | 0.0 | 0.00 | 0.01 | 0.01 | 77 | 1010.0 |
| 20260509165836 | 83 | 184 | 1.7 | 1.7 | 0.00 | 0.01 | 0.01 | 77 | 1010.0 |
| 20260509165331 | 82 | 194 | 0.9 | 0.9 | 0.00 | 0.01 | 0.01 | 78 | 1010.0 |
| 20260509164827 | 82 | 279 | 0.0 | 0.9 | 0.00 | 0.01 | 0.01 | 78 | 1010.0 |
| 20260509164323 | 82 | 282 | 0.9 | 0.9 | 0.00 | 0.01 | 0.01 | 79 | 1010.0 |
| 20260509163819 | 81 | 253 | 0.0 | 0.0 | 0.00 | 0.01 | 0.01 | 80 | 1010.3 |
| 20260509163316 | 81 | 321 | 1.7 | 1.7 | 0.00 | 0.01 | 0.01 | 80 | 1010.3 |
| 20260509162815 | 81 | 306 | 0.0 | 0.9 | 0.00 | 0.01 | 0.01 | 80 | 1010.3 |
| 20260509162309 | 82 | 318 | 1.7 | 1.7 | 0.00 | 0.01 | 0.01 | 79 | 1010.3 |
| 20260509161805 | 83 | 44 | 0.9 | 1.7 | 0.00 | 0.01 | 0.01 | 76 | 1010.7 |
| 20260509161301 | 82 | 213 | 0.9 | 0.9 | 0.00 | 0.01 | 0.01 | 79 | 1010.3 |
| 20260509160756 | 81 | 279 | 0.9 | 0.9 | 0.00 | 0.01 | 0.01 | 81 | 1010.7 |
| 20260509160253 | 81 | 303 | 1.7 | 1.7 | 0.00 | 0.01 | 0.01 | 81 | 1010.3 |
| 20260509155748 | 81 | 292 | 0.9 | 0.9 | 0.00 | 0.01 | 0.01 | 81 | 1010.3 |
| 20260509155245 | 81 | 351 | 1.7 | 1.7 | 0.00 | 0.01 | 0.01 | 81 | 1010.3 |
| 20260509154741 | 80 | 318 | 0.0 | 0.9 | 0.00 | 0.01 | 0.01 | 83 | 1010.3 |
| 20260509154238 | 80 | 315 | 1.7 | 1.7 | 0.00 | 0.01 | 0.01 | 83 | 1010.7 |
| 20260509153736 | 80 | 323 | 0.9 | 0.9 | 0.00 | 0.01 | 0.01 | 84 | 1010.7 |
| 20260509153231 | 80 | 356 | 0.0 | 0.0 | 0.00 | 0.01 | 0.01 | 87 | 1010.3 |
| 20260509152728 | 79 | 264 | 1.7 | 1.7 | 0.00 | 0.01 | 0.01 | 89 | 1010.3 |
| 20260509152224 | 78 | 316 | 0.0 | 0.0 | 0.00 | 0.01 | 0.01 | 92 | 1010.7 |
| 20260509151722 | 77 | 25 | 0.9 | 1.7 | 0.00 | 0.01 | 0.01 | 92 | 1010.3 |
| 20260509151218 | 77 | 359 | 0.9 | 0.9 | 0.00 | 0.01 | 0.01 | 93 | 1010.7 |
| 20260509150716 | 77 | 330 | 1.7 | 2.6 | 0.00 | 0.01 | 0.01 | 94 | 1010.7 |
| 20260509150214 | 77 | 353 | 1.7 | 1.7 | 0.00 | 0.01 | 0.01 | 95 | 1010.7 |
| 20260509145710 | 76 | 339 | 0.9 | 0.9 | 0.00 | 0.01 | 0.01 | 95 | 1010.7 |
| 20260509145206 | 76 | 322 | 0.9 | 0.9 | 0.00 | 0.01 | 0.01 | 95 | 1010.3 |
| 20260509144702 | 76 | 309 | 0.9 | 0.9 | 0.00 | 0.01 | 0.01 | 96 | 1010.3 |
| 20260509144200 | 76 | 301 | 0.0 | 0.0 | 0.00 | 0.01 | 0.01 | 97 | 1010.0 |
| 20260509143657 | 75 | 299 | 0.9 | 0.9 | 0.00 | 0.01 | 0.01 | 97 | 1010.3 |
| 20260509143154 | 75 | 325 | 0.9 | 0.9 | 0.00 | 0.01 | 0.01 | 97 | 1010.0 |
| 20260509142649 | 75 | 248 | 0.0 | 0.0 | 0.00 | 0.01 | 0.01 | 97 | 1010.0 |
| 20260509142147 | 75 | 355 | 0.0 | 0.0 | 0.00 | 0.01 | 0.01 | 97 | 1010.0 |
| 20260509141642 | 75 | 359 | 0.0 | 0.0 | 0.00 | 0.01 | 0.01 | 97 | 1010.0 |
| 20260509141138 | 75 | 32 | 1.7 | 1.7 | 0.00 | 0.01 | 0.01 | 97 | 1010.0 |
| 20260509140636 | 75 | 4 | 0.9 | 0.9 | 0.00 | 0.01 | 0.01 | 97 | 1010.0 |
| 20260509140134 | 75 | 344 | 2.6 | 2.6 | 0.00 | 0.01 | 0.01 | 97 | 1010.0 |
| 20260509135630 | 75 | 331 | 0.9 | 1.7 | 0.00 | 0.01 | 0.01 | 98 | 1010.3 |
| 20260509135129 | 75 | 323 | 0.9 | 0.9 | 0.00 | 0.01 | 0.01 | 98 | 1010.0 |
| 20260509134625 | 75 | 169 | 0.9 | 0.9 | 0.00 | 0.01 | 0.01 | 98 | 1010.0 |
| 20260509134123 | 75 | 352 | 0.0 | 0.0 | 0.00 | 0.01 | 0.01 | 98 | 1010.0 |
| 20260509133620 | 75 | 303 | 0.0 | 0.0 | 0.00 | 0.01 | 0.01 | 98 | 1010.0 |
| 20260509133117 | 75 | 298 | 0.9 | 0.9 | 0.00 | 0.01 | 0.01 | 98 | 1010.3 |
| 20260509132615 | 74 | 332 | 0.0 | 0.0 | 0.00 | 0.01 | 0.01 | 98 | 1010.0 |
| 20260509132113 | 74 | 306 | 0.9 | 0.9 | 0.00 | 0.01 | 0.01 | 98 | 1010.7 |
| 20260509131609 | 74 | 308 | 0.9 | 0.9 | 0.00 | 0.01 | 0.01 | 98 | 1010.7 |
| 20260509131106 | 74 | 306 | 0.0 | 0.0 | 0.00 | 0.01 | 0.01 | 98 | 1010.3 |
| 20260509130601 | 74 | 294 | 0.9 | 0.9 | 0.00 | 0.01 | 0.01 | 98 | 1010.3 |
| 20260509130058 | 74 | 329 | 0.9 | 0.9 | 0.00 | 0.01 | 0.01 | 98 | 1010.7 |
| 20260509125555 | 74 | 304 | 1.7 | 1.7 | 0.00 | 0.01 | 0.01 | 98 | 1010.3 |
| 20260509125052 | 74 | 298 | 0.9 | 1.7 | 0.00 | 0.01 | 0.01 | 98 | 1010.7 |
| 20260509124548 | 74 | 300 | 0.9 | 0.9 | 0.00 | 0.01 | 0.01 | 98 | 1010.7 |
| 20260509124045 | 74 | 305 | 0.9 | 0.9 | 0.00 | 0.01 | 0.01 | 98 | 1010.7 |
| 20260509123543 | 74 | 335 | 0.9 | 0.9 | 0.00 | 0.01 | 0.01 | 98 | 1010.3 |
| 20260509123039 | 74 | 326 | 0.0 | 0.9 | 0.00 | 0.01 | 0.01 | 98 | 1010.0 |
| 20260509122536 | 73 | 301 | 0.0 | 0.0 | 0.00 | 0.01 | 0.01 | 98 | 1010.0 |
| 20260509122033 | 73 | 296 | 0.0 | 0.0 | 0.00 | 0.01 | 0.01 | 98 | 1010.0 |
| 20260509121529 | 73 | 283 | 0.0 | 0.0 | 0.00 | 0.01 | 0.01 | 98 | 1010.0 |
| 20260509121027 | 73 | 167 | 0.0 | 0.0 | 0.00 | 0.01 | 0.01 | 98 | 1009.7 |
| 20260509120525 | 73 | 185 | 0.0 | 0.9 | 0.00 | 0.01 | 0.01 | 98 | 1009.7 |
| 20260509120023 | 73 | 159 | 0.9 | 0.9 | 0.00 | 0.01 | 0.01 | 98 | 1009.7 |
| 20260509115520 | 73 | 180 | 0.9 | 0.9 | 0.00 | 0.01 | 0.01 | 98 | 1009.3 |
| 20260509115018 | 73 | 230 | 0.0 | 0.9 | 0.00 | 0.01 | 0.01 | 98 | 1009.7 |
| 20260509114515 | 73 | 223 | 0.0 | 0.0 | 0.00 | 0.01 | 0.01 | 98 | 1009.7 |
| 20260509114014 | 73 | 213 | 0.0 | 0.0 | 0.00 | 0.01 | 0.01 | 98 | 1010.0 |
| 20260509113512 | 73 | 202 | 0.0 | 0.9 | 0.00 | 0.01 | 0.01 | 98 | 1009.7 |
| 20260509113010 | 73 | 275 | 0.0 | 0.0 | 0.00 | 0.01 | 0.01 | 98 | 1010.0 |
| 20260509112506 | 73 | 318 | 0.0 | 0.0 | 0.00 | 0.01 | 0.01 | 98 | 1010.3 |
| 20260509112003 | 73 | 302 | 0.9 | 0.9 | 0.00 | 0.01 | 0.01 | 98 | 1010.3 |
| 20260509111500 | 73 | 264 | 0.0 | 0.0 | 0.00 | 0.01 | 0.01 | 98 | 1010.3 |
| 20260509110957 | 73 | 288 | 0.0 | 0.0 | 0.00 | 0.01 | 0.01 | 98 | 1010.3 |
| 20260509110453 | 73 | 309 | 0.9 | 0.9 | 0.00 | 0.01 | 0.01 | 98 | 1010.3 |
| 20260509105951 | 73 | 323 | 0.9 | 0.9 | 0.00 | 0.01 | 0.01 | 98 | 1010.3 |
| 20260509105449 | 73 | 358 | 1.7 | 1.7 | 0.00 | 0.01 | 0.01 | 98 | 1010.0 |
| 20260509104946 | 73 | 0 | 0.9 | 0.9 | 0.00 | 0.01 | 0.01 | 98 | 1010.0 |
| 20260509104443 | 73 | 333 | 0.9 | 0.9 | 0.00 | 0.01 | 0.01 | 98 | 1010.0 |
| 20260509103940 | 73 | 326 | 0.9 | 0.9 | 0.00 | 0.01 | 0.01 | 98 | 1010.0 |
| 20260509103438 | 73 | 305 | 0.0 | 0.0 | 0.00 | 0.01 | 0.01 | 98 | 1010.0 |
| 20260509102936 | 73 | 305 | 0.0 | 0.0 | 0.00 | 0.01 | 0.01 | 97 | 1010.0 |
| 20260509102433 | 73 | 320 | 0.0 | 0.0 | 0.00 | 0.01 | 0.01 | 97 | 1009.7 |
| 20260509101929 | 72 | 318 | 0.0 | 0.0 | 0.00 | 0.01 | 0.01 | 98 | 1009.7 |
| 20260509101425 | 72 | 287 | 0.0 | 0.0 | 0.00 | 0.01 | 0.01 | 97 | 1009.3 |
| 20260509100923 | 72 | 255 | 0.0 | 0.0 | 0.00 | 0.01 | 0.01 | 97 | 1009.3 |
| 20260509100420 | 73 | 255 | 0.0 | 0.0 | 0.00 | 0.01 | 0.01 | 97 | 1009.0 |
| 20260509095916 | 73 | 288 | 0.0 | 0.0 | 0.00 | 0.01 | 0.01 | 97 | 1009.0 |
| 20260509095414 | 73 | 290 | 0.0 | 0.0 | 0.00 | 0.01 | 0.01 | 97 | 1009.0 |
| 20260509094911 | 73 | 291 | 0.0 | 0.0 | 0.00 | 0.01 | 0.01 | 97 | 1009.0 |
| 20260509094407 | 73 | 322 | 0.9 | 0.9 | 0.00 | 0.01 | 0.01 | 97 | 1009.0 |
| 20260509093905 | 73 | 323 | 0.0 | 0.0 | 0.00 | 0.01 | 0.01 | 97 | 1009.3 |
| 20260509093402 | 73 | 323 | 0.0 | 0.0 | 0.00 | 0.01 | 0.01 | 97 | 1009.3 |
| 20260509092900 | 73 | 308 | 0.0 | 0.0 | 0.00 | 0.01 | 0.01 | 97 | 1009.7 |
| 20260509092357 | 73 | 314 | 0.0 | 0.9 | 0.00 | 0.01 | 0.01 | 97 | 1010.0 |
| 20260509091856 | 73 | 332 | 0.0 | 0.0 | 0.00 | 0.01 | 0.01 | 97 | 1009.7 |
| 20260509091352 | 73 | 314 | 0.9 | 0.9 | 0.00 | 0.01 | 0.01 | 97 | 1009.7 |
| 20260509090850 | 73 | 325 | 0.9 | 0.9 | 0.00 | 0.01 | 0.01 | 97 | 1009.7 |
| 20260509090347 | 73 | 332 | 0.0 | 0.9 | 0.00 | 0.01 | 0.01 | 97 | 1009.3 |
| 20260509085844 | 73 | 332 | 0.0 | 0.0 | 0.00 | 0.01 | 0.01 | 97 | 1009.3 |
| 20260509085341 | 73 | 332 | 0.0 | 0.0 | 0.00 | 0.01 | 0.01 | 97 | 1009.0 |
| 20260509084838 | 73 | 332 | 0.0 | 0.0 | 0.00 | 0.01 | 0.01 | 97 | 1009.3 |
| 20260509084335 | 73 | 331 | 0.0 | 0.0 | 0.00 | 0.01 | 0.01 | 97 | 1009.3 |
| 20260509083833 | 73 | 343 | 0.0 | 0.0 | 0.00 | 0.01 | 0.01 | 97 | 1009.7 |
| 20260509083329 | 73 | 345 | 0.0 | 0.0 | 0.00 | 0.01 | 0.01 | 97 | 1009.3 |
| 20260509082826 | 73 | 344 | 0.0 | 0.0 | 0.00 | 0.01 | 0.01 | 97 | 1009.7 |
| 20260509082322 | 73 | 345 | 0.0 | 0.0 | 0.00 | 0.01 | 0.01 | 97 | 1009.7 |
| 20260509081820 | 73 | 345 | 0.0 | 0.0 | 0.00 | 0.01 | 0.01 | 97 | 1009.7 |
| 20260509081317 | 73 | 345 | 0.0 | 0.0 | 0.00 | 0.01 | 0.01 | 97 | 1009.3 |
| 20260509080815 | 73 | 348 | 0.0 | 0.9 | 0.00 | 0.01 | 0.01 | 97 | 1009.3 |
| 20260509080312 | 73 | 342 | 0.0 | 0.0 | 0.00 | 0.01 | 0.01 | 97 | 1009.7 |
| 20260509075810 | 73 | 342 | 0.0 | 0.0 | 0.00 | 0.01 | 0.01 | 97 | 1009.3 |
| 20260509075307 | 73 | 338 | 0.0 | 0.0 | 0.00 | 0.01 | 0.01 | 97 | 1009.7 |
| 20260509074804 | 73 | 321 | 0.0 | 0.0 | 0.00 | 0.01 | 0.01 | 97 | 1009.3 |
| 20260509074302 | 73 | 321 | 0.0 | 0.0 | 0.00 | 0.01 | 0.01 | 97 | 1009.7 |
| 20260509073758 | 73 | 321 | 0.0 | 0.0 | 0.00 | 0.01 | 0.01 | 97 | 1009.7 |
| 20260509073254 | 73 | 321 | 0.0 | 0.0 | 0.00 | 0.01 | 0.01 | 97 | 1010.0 |
| 20260509072751 | 73 | 321 | 0.0 | 0.0 | 0.00 | 0.01 | 0.01 | 97 | 1010.0 |
| 20260509072248 | 73 | 321 | 0.0 | 0.0 | 0.00 | 0.01 | 0.01 | 97 | 1010.0 |
| 20260509071744 | 73 | 321 | 0.0 | 0.0 | 0.00 | 0.01 | 0.01 | 96 | 1010.0 |
| 20260509071242 | 73 | 321 | 0.9 | 0.9 | 0.00 | 0.01 | 0.01 | 96 | 1010.0 |
| 20260509070738 | 73 | 326 | 0.9 | 0.9 | 0.00 | 0.01 | 0.01 | 96 | 1010.0 |
| 20260509070235 | 73 | 334 | 0.0 | 0.0 | 0.00 | 0.01 | 0.01 | 96 | 1009.7 |
| 20260509065731 | 73 | 343 | 0.0 | 0.0 | 0.01 | 0.01 | 0.01 | 96 | 1009.7 |
| 20260509065228 | 73 | 335 | 0.0 | 0.0 | 0.00 | 0.00 | 0.00 | 96 | 1010.0 |
| 20260509064724 | 73 | 318 | 0.0 | 0.0 | 0.00 | 0.00 | 0.00 | 96 | 1010.0 |
| 20260509064222 | 73 | 318 | 0.0 | 0.0 | 0.00 | 0.00 | 0.00 | 96 | 1010.0 |
| 20260509063719 | 73 | 319 | 0.9 | 0.9 | 0.00 | 0.00 | 0.00 | 96 | 1010.0 |
| 20260509063215 | 73 | 347 | 0.0 | 0.0 | 0.00 | 0.00 | 0.00 | 96 | 1010.0 |
| 20260509062713 | 73 | 355 | 0.0 | 0.0 | 0.00 | 0.00 | 0.00 | 96 | 1010.0 |
| 20260509062210 | 73 | 2 | 0.0 | 0.0 | 0.00 | 0.00 | 0.00 | 96 | 1010.0 |
| 20260509061707 | 73 | 356 | 0.0 | 0.0 | 0.00 | 0.00 | 0.00 | 96 | 1010.0 |
| 20260509061204 | 73 | 355 | 0.0 | 0.0 | 0.00 | 0.00 | 0.00 | 96 | 1010.0 |
| 20260509060701 | 73 | 21 | 0.0 | 0.0 | 0.00 | 0.00 | 0.00 | 96 | 1010.3 |
| 20260509060158 | 73 | 62 | 0.0 | 0.0 | 0.00 | 0.00 | 0.00 | 96 | 1010.0 |
| 20260509055654 | 73 | 25 | 0.9 | 0.9 | 0.00 | 0.00 | 0.00 | 96 | 1010.0 |
| 20260509055149 | 73 | 15 | 0.0 | 0.0 | 0.00 | 0.00 | 0.00 | 96 | 1010.0 |
| 20260509054646 | 73 | 181 | 0.0 | 0.9 | 0.00 | 0.00 | 0.00 | 96 | 1010.3 |
| 20260509054144 | 73 | 36 | 0.9 | 0.9 | 0.00 | 0.00 | 0.00 | 96 | 1010.0 |
| 20260509053642 | 73 | 165 | 0.0 | 0.0 | 0.00 | 0.00 | 0.00 | 96 | 1010.3 |
| 20260509053138 | 73 | 187 | 0.0 | 0.0 | 0.00 | 0.00 | 0.00 | 96 | 1010.3 |
| 20260509052636 | 73 | 177 | 0.0 | 0.0 | 0.00 | 0.00 | 0.00 | 96 | 1010.3 |
| 20260509052134 | 73 | 198 | 0.0 | 0.9 | 0.00 | 0.00 | 0.00 | 96 | 1010.0 |
| 20260509051632 | 73 | 134 | 0.9 | 0.9 | 0.00 | 0.00 | 0.00 | 96 | 1010.3 |
| 20260509051128 | 73 | 157 | 0.9 | 0.9 | 0.00 | 0.00 | 0.00 | 96 | 1010.0 |
| 20260509050626 | 73 | 149 | 2.6 | 2.6 | 0.00 | 0.00 | 0.00 | 96 | 1010.3 |
| 20260509050122 | 73 | 154 | 1.7 | 1.7 | 0.00 | 0.00 | 0.00 | 96 | 1010.0 |
| 20260509045620 | 73 | 274 | 0.0 | 0.9 | 0.00 | 0.12 | 0.12 | 96 | 1010.3 |
| 20260509045116 | 73 | 186 | 0.9 | 0.9 | 0.00 | 0.12 | 0.12 | 96 | 1010.3 |
| 20260509044613 | 73 | 217 | 0.9 | 0.9 | 0.00 | 0.12 | 0.12 | 96 | 1010.3 |
| 20260509044111 | 72 | 142 | 0.9 | 0.9 | 0.00 | 0.12 | 0.12 | 96 | 1010.7 |
| 20260509043607 | 72 | 187 | 0.9 | 0.9 | 0.00 | 0.12 | 0.12 | 96 | 1010.3 |
| 20260509043103 | 72 | 62 | 0.0 | 0.0 | 0.00 | 0.12 | 0.12 | 96 | 1010.3 |
| 20260509042559 | 72 | 121 | 0.0 | 0.0 | 0.00 | 0.12 | 0.12 | 96 | 1010.3 |
| 20260509042055 | 72 | 148 | 0.9 | 0.9 | 0.00 | 0.12 | 0.12 | 96 | 1010.7 |
| 20260509041552 | 72 | 117 | 0.0 | 0.0 | 0.00 | 0.12 | 0.12 | 96 | 1010.3 |
| 20260509041050 | 72 | 102 | 0.9 | 0.9 | 0.00 | 0.12 | 0.12 | 96 | 1010.3 |
| 20260509040548 | 72 | 153 | 0.0 | 0.9 | 0.00 | 0.12 | 0.12 | 96 | 1010.0 |
| 20260509040044 | 72 | 174 | 0.9 | 0.9 | 0.00 | 0.12 | 0.12 | 96 | 1010.0 |
| 20260509035542 | 72 | 160 | 0.0 | 0.9 | 0.00 | 0.12 | 0.12 | 96 | 1010.0 |
| 20260509035038 | 72 | 184 | 0.0 | 0.9 | 0.00 | 0.12 | 0.12 | 96 | 1010.0 |
| 20260509034537 | 72 | 353 | 0.0 | 0.0 | 0.00 | 0.12 | 0.12 | 96 | 1010.0 |